Temp
15 15 15 16 16 16 16 15 15 16 16 16 17 17 16 15 14 14 14 14 14 15 15 15 15 14 14 14 13 13 12 12 11 11 10 10 11 11 10 10 10 11
15 15 15 16 16 15 15 15 15 16 16 16 16 16 15 14 14 14 14 14 15 15 16 16 15 14 14 14 13 13 12 12 12 11 11 11 10 10 10 10 10 10
15 15 15 15 15 15 15 15 15 15 15 14 15 15 15 14 14 14 14 14 15 15 16 15 15 14 14 13 13 13 12 12 12 11 11 11 10 10 10 10 10 10
15 15 15 15 15 15 15 15 14 14 14 14 14 15 15 15 14 14 14 15 15 16 16 15 14 14 13 13 13 13 12 12 12 11 11 11 11 10 10 10 10 10
15 14 14 15 15 14 14 14 14 14 13 13 14 15 15 15 15 15 14 15 16 16 16 15 15 14 13 13 13 13 13 12 12 12 11 11 11 11 10 10 10 11
14 14 14 14 14 14 14 14 13 13 13 13 14 15 15 15 15 15 15 15 16 16 15 15 14 14 13 13 13 13 12 12 12 12 12 12 11 11 11 11 11 12
14 14 14 14 14 14 14 13 13 13 13 14 15 16 16 15 15 15 15 16 16 15 14 14 14 13 13 13 13 13 12 12 12 12 12 12 11 11 10 10 11 11
14 14 14 14 14 14 13 13 13 13 14 15 15 15 15 15 15 15 16 16 15 14 14 13 13 13 13 13 13 13 12 12 12 11 11 11 10 9 9 9 10 10
14 14 14 14 14 14 13 13 13 13 15 15 15 15 15 15 15 16 15 15 14 13 13 12 12 12 12 13 12 12 12 12 10 9 9 9 9 9 9 9 10 9
14 14 14 14 14 13 13 12 13 14 15 15 15 15 15 15 15 15 14 14 13 13 12 12 12 12 12 12 12 12 12 11 9 9 9 9 9 9 9 9 9 9
14 14 14 14 13 13 13 13 14 14 14 14 14 15 15 15 15 14 13 13 12 12 12 12 12 12 12 12 12 12 11 9 8 8 9 10 10 9 9 8 8 9
13 13 13 13 13 14 14 14 14 14 14 14 14 14 14 14 14 13 12 12 12 12 12 12 12 12 11 12 11 11 10 9 8 8 9 10 10 9 9 8 8 8
13 13 13 13 13 14 14 13 13 13 14 13 13 14 14 13 12 12 12 12 12 12 12 12 11 11 11 11 11 10 9 8 8 8 9 9 9 9 8 8 7 7
13 13 13 13 14 14 14 13 12 12 12 13 13 13 12 12 12 12 12 12 12 12 11 11 11 11 11 11 10 10 10 8 8 8 8 9 9 9 8 7 6 6
13 13 13 14 14 14 13 13 12 11 11 12 13 12 12 12 11 11 11 11 11 11 11 11 11 11 11 10 10 10 9 9 8 8 8 8 8 8 8 7 6 5
13 13 13 14 13 13 13 12 11 10 11 11 11 11 11 11 11 11 11 11 11 11 10 10 10 10 10 9 9 9 9 8 8 8 8 8 8 8 7 7 6 5
13 13 13 13 13 12 11 10 9 9 10 11 11 11 11 11 11 11 11 10 10 10 10 10 10 9 9 9 8 8 8 8 8 8 8 8 7 7 6 6 6 5
12 12 13 13 12 11 10 8 8 8 9 10 10 10 10 10 10 10 10 10 10 10 9 9 9 9 8 8 8 8 7 7 7 7 7 7 7 6 6 5 5 5
12 12 12 12 11 9 8 7 7 8 9 9 10 10 10 10 10 10 10 9 9 9 9 9 8 8 7 7 7 7 7 7 7 7 7 7 7 6 6 5 5 5
12 11 11 11 9 8 7 6 6 7 8 9 9 10 9 9 9 9 9 9 9 9 9 8 8 7 7 7 7 7 7 7 7 7 7 7 6 6 5 5 5 5
10 10 9 9 8 7 7 6 6 7 8 8 9 9 9 9 9 9 9 8 8 8 8 8 8 7 7 7 7 7 7 7 7 7 7 7 6 6 5 5 5 5
9 8 8 8 7 7 6 6 6 7 8 8 8 8 9 9 9 8 8 8 8 8 8 8 7 7 6 6 6 6 6 7 7 7 7 6 6 6 5 5 5 4
8 8 7 7 7 7 6 6 6 7 7 8 8 8 9 9 8 8 8 7 7 7 7 7 7 6 5 5 6 6 6 6 6 6 6 6 6 5 5 4 4 4
8 8 7 7 7 7 7 6 6 6 7 8 8 8 8 8 8 8 7 7 7 7 7 7 6 6 5 5 5 5 6 6 6 7 7 6 5 5 4 4 4 4
8 8 7 7 7 7 7 6 6 6 6 7 8 8 8 7 7 8 7 7 7 7 6 6 6 5 5 5 5 5 5 6 6 7 7 6 5 4 4 4 4 4
8 7 7 7 7 7 6 6 6 6 6 6 7 7 7 7 7 7 7 7 7 6 6 6 6 6 5 5 5 5 5 6 6 7 7 6 5 4 4 4 4 4
Height
1514 1516 1518 1519 1520 1521 1522 1523 1524 1525 1526 1526 1526 1527 1528 1529 1530 1531 1531 1531 1531 1531 1530 1531 1530 1530 1529 1528 1528 1528 1528 1528 1527 1526 1526 1525 1525 1524 1523 1522 1521 1520
1514 1515 1517 1518 1519 1520 1521 1522 1523 1524 1525 1525 1525 1526 1527 1528 1529 1529 1530 1530 1530 1530 1529 1529 1529 1529 1528 1527 1527 1527 1527 1527 1526 1525 1525 1524 1524 1523 1522 1521 1520 1519
1513 1515 1517 1518 1518 1519 1520 1521 1523 1524 1524 1525 1525 1525 1526 1527 1527 1528 1529 1529 1529 1529 1528 1528 1528 1527 1527 1526 1526 1526 1526 1526 1525 1524 1524 1523 1522 1521 1521 1520 1519 1517
1512 1514 1516 1517 1517 1518 1519 1520 1522 1523 1524 1524 1524 1524 1525 1525 1526 1527 1528 1528 1528 1527 1526 1526 1526 1526 1526 1526 1526 1525 1525 1525 1525 1524 1523 1522 1521 1520 1519 1518 1517 1515
1512 1513 1515 1516 1516 1517 1519 1520 1521 1522 1523 1523 1523 1523 1524 1524 1525 1526 1527 1527 1526 1526 1525 1525 1525 1525 1525 1525 1525 1525 1525 1525 1524 1523 1522 1521 1520 1519 1518 1517 1516 1514
1510 1512 1514 1515 1516 1517 1518 1519 1521 1522 1522 1522 1522 1522 1522 1523 1524 1525 1525 1525 1525 1525 1524 1524 1524 1524 1525 1525 1525 1524 1524 1524 1523 1523 1522 1521 1520 1519 1517 1516 1515 1513
1509 1511 1513 1514 1515 1516 1518 1519 1520 1521 1521 1521 1521 1521 1521 1522 1523 1523 1524 1524 1524 1524 1524 1523 1524 1524 1524 1525 1524 1524 1524 1524 1523 1522 1521 1520 1519 1518 1516 1515 1514 1512
1508 1510 1512 1514 1515 1516 1517 1518 1519 1520 1520 1519 1519 1519 1520 1521 1521 1522 1523 1523 1523 1523 1523 1523 1523 1524 1524 1524 1524 1524 1523 1523 1522 1521 1520 1519 1518 1517 1516 1514 1513 1512
1508 1510 1511 1513 1514 1515 1516 1517 1518 1518 1518 1517 1518 1518 1519 1519 1520 1521 1522 1522 1522 1522 1523 1523 1523 1523 1524 1524 1523 1523 1523 1523 1522 1521 1520 1519 1518 1517 1516 1514 1513 1512
1507 1509 1510 1512 1513 1514 1515 1516 1516 1516 1516 1516 1516 1517 1517 1518 1519 1521 1521 1521 1522 1522 1522 1522 1522 1523 1523 1523 1523 1523 1523 1522 1522 1521 1520 1519 1518 1517 1516 1514 1513 1512
1507 1508 1510 1511 1512 1512 1513 1514 1514 1514 1514 1515 1515 1516 1517 1518 1519 1520 1520 1521 1521 1522 1522 1522 1522 1523 1523 1523 1523 1523 1522 1522 1521 1520 1519 1519 1518 1517 1516 1515 1514 1513
1506 1508 1509 1510 1510 1511 1512 1512 1512 1513 1514 1514 1515 1515 1517 1518 1519 1519 1520 1521 1521 1522 1522 1522 1522 1523 1523 1523 1523 1522 1522 1522 1521 1520 1519 1519 1518 1517 1516 1516 1515 1513
1505 1507 1508 1509 1510 1510 1510 1510 1510 1512 1513 1514 1514 1516 1517 1518 1518 1519 1520 1521 1521 1522 1522 1522 1523 1523 1523 1522 1522 1522 1522 1522 1521 1520 1520 1519 1518 1517 1517 1516 1515 1514
1504 1506 1507 1508 1509 1509 1509 1509 1510 1511 1512 1513 1514 1516 1517 1518 1518 1519 1520 1521 1522 1522 1522 1523 1523 1523 1523 1522 1522 1522 1523 1522 1522 1521 1520 1519 1519 1518 1518 1517 1516 1515
1504 1505 1506 1507 1508 1508 1508 1508 1510 1511 1511 1513 1514 1516 1517 1518 1519 1520 1520 1521 1522 1522 1523 1523 1523 1523 1523 1523 1523 1523 1523 1523 1522 1522 1521 1520 1520 1519 1518 1517 1516 1516
1503 1504 1505 1506 1507 1507 1507 1508 1509 1510 1511 1513 1514 1516 1517 1518 1519 1520 1521 1521 1522 1523 1523 1523 1524 1524 1523 1523 1524 1524 1524 1523 1523 1522 1522 1521 1521 1520 1519 1518 1517 1516
1502 1503 1504 1505 1505 1506 1507 1508 1509 1510 1511 1513 1514 1515 1517 1518 1519 1520 1521 1522 1522 1523 1523 1524 1524 1524 1524 1524 1525 1525 1524 1524 1524 1523 1523 1522 1522 1521 1519 1518 1517 1517
1501 1503 1503 1504 1504 1505 1507 1508 1509 1510 1511 1513 1514 1515 1517 1518 1519 1520 1521 1522 1523 1523 1524 1524 1524 1524 1525 1525 1525 1525 1525 1525 1525 1524 1524 1523 1522 1521 1520 1519 1518 1518
1500 1501 1502 1503 1504 1505 1507 1508 1509 1510 1512 1513 1514 1516 1517 1519 1520 1521 1522 1522 1523 1524 1524 1524 1525 1525 1525 1526 1526 1526 1526 1526 1525 1525 1524 1523 1522 1521 1521 1520 1519 1518
1499 1500 1501 1502 1503 1505 1507 1508 1510 1511 1512 1513 1515 1516 1518 1519 1520 1521 1522 1523 1523 1524 1525 1525 1525 1526 1526 1526 1527 1526 1526 1526 1525 1525 1524 1523 1522 1522 1521 1521 1520 1519
1497 1499 1500 1502 1503 1505 1507 1508 1510 1511 1512 1514 1515 1517 1518 1519 1521 1522 1522 1523 1524 1524 1525 1525 1526 1526 1527 1527 1527 1527 1527 1526 1525 1525 1524 1523 1522 1522 1521 1521 1521 1520
1497 1498 1500 1501 1503 1505 1507 1508 1509 1510 1512 1514 1515 1517 1519 1520 1521 1522 1523 1524 1524 1525 1526 1526 1526 1527 1527 1527 1528 1528 1527 1527 1526 1525 1524 1523 1522 1522 1521 1521 1521 1521
1496 1498 1500 1501 1504 1506 1507 1508 1508 1510 1512 1514 1515 1517 1519 1521 1522 1523 1524 1524 1525 1525 1526 1526 1527 1527 1528 1528 1529 1529 1528 1528 1527 1526 1525 1524 1523 1523 1522 1522 1522 1522
1497 1498 1500 1501 1504 1506 1508 1508 1509 1510 1512 1514 1517 1518 1520 1521 1522 1523 1524 1525 1525 1526 1526 1527 1527 1528 1529 1529 1529 1530 1529 1529 1528 1527 1526 1525 1524 1524 1524 1523 1523 1523
1496 1498 1500 1501 1504 1506 1508 1509 1510 1511 1513 1515 1517 1519 1520 1521 1522 1523 1524 1525 1525 1526 1527 1528 1528 1529 1529 1530 1530 1530 1530 1529 1529 1528 1527 1526 1525 1525 1525 1525 1525 1524
1496 1498 1500 1502 1504 1506 1509 1510 1511 1512 1514 1515 1517 1519 1520 1521 1522 1523 1524 1525 1526 1526 1527 1528 1529 1529 1530 1531 1531 1531 1530 1530 1529 1528 1528 1527 1527 1527 1526 1526 1526 1525
Wind_Speed
24 21 21 22 22 22 21 20 21 21 18 15 12 11 12 13 14 14 14 14 15 15 15 14 12 10 9 8 7 6 7 9 10 12 12 11 10 11 11 13 12 11
23 22 22 23 22 22 22 21 21 20 18 15 13 13 13 14 15 15 15 15 15 15 14 13 10 8 7 6 6 7 8 9 11 12 12 12 11 11 12 13 13 13
24 24 24 24 23 23 23 22 21 20 19 17 15 14 15 16 17 17 16 16 15 14 12 10 7 5 5 5 5 6 7 8 10 11 11 11 11 11 13 14 15 17
25 25 25 25 24 24 24 22 21 20 20 19 17 16 16 17 18 18 17 16 14 12 9 7 5 4 4 4 5 5 6 7 8 9 10 10 11 12 14 16 17 18
26 26 26 25 25 24 23 22 21 21 21 20 18 17 17 18 18 18 17 15 13 10 7 5 4 4 4 4 4 4 5 6 6 7 9 10 10 11 12 13 14 15
27 27 26 25 25 24 23 22 22 21 21 19 18 17 18 18 17 17 16 14 11 8 6 4 2 3 4 2 2 3 3 4 6 7 8 8 8 9 9 10 11 12
27 27 26 26 24 23 22 21 20 20 19 18 17 18 17 16 16 15 15 13 10 7 5 3 2 3 2 0 1 2 3 4 6 6 6 6 6 7 8 9 10 11
27 26 26 24 22 20 19 19 19 19 18 17 17 17 15 15 15 14 13 10 7 5 5 3 3 2 1 1 1 2 3 4 5 5 5 5 6 7 8 8 9 9
28 26 25 23 21 20 19 19 18 17 17 17 17 16 15 16 15 13 11 8 7 6 5 4 2 2 1 2 2 3 4 4 3 3 4 5 5 6 7 8 9 8
28 26 25 23 21 20 19 18 17 17 17 16 16 16 16 15 14 11 9 8 8 7 6 4 2 1 2 2 2 2 2 2 2 3 4 4 5 5 6 8 8 8
27 25 24 22 20 19 18 18 17 18 17 15 14 15 15 13 12 10 9 9 8 7 5 4 2 1 2 1 1 1 1 1 1 3 4 5 5 5 7 9 9 9
26 24 23 21 20 19 18 19 19 17 15 13 14 15 14 11 10 11 11 10 8 7 5 4 2 2 1 0 1 2 1 2 3 4 5 5 5 7 8 9 10 10
25 23 22 20 20 19 19 19 17 15 14 14 14 14 12 11 12 12 11 9 8 6 5 4 3 3 2 2 3 3 2 3 4 5 6 6 6 8 8 9 10 10
24 24 22 21 20 20 19 18 15 14 15 15 13 12 12 13 13 11 10 9 7 6 5 5 4 5 4 4 5 4 4 5 5 5 7 7 7 7 8 9 10 10
24 23 22 21 20 19 17 16 15 15 15 14 12 13 15 14 13 11 10 9 8 7 6 6 6 6 6 6 6 5 5 6 5 6 7 7 7 7 7 7 8 9
24 23 21 20 18 16 16 16 16 16 15 13 13 15 15 14 12 11 10 9 8 7 7 7 7 8 8 8 8 6 6 6 5 5 6 6 7 7 7 6 7 9
23 21 19 18 16 16 16 16 17 16 14 14 16 16 15 14 13 12 11 10 9 8 8 8 8 9 9 9 8 7 6 5 5 4 4 4 5 5 5 5 7 9
21 20 18 18 17 17 17 17 17 15 14 16 17 17 16 15 14 13 12 11 9 9 8 8 9 9 9 9 8 7 6 4 3 2 2 1 2 2 4 4 5 7
21 19 19 18 18 18 20 20 17 15 15 17 18 18 17 16 14 13 12 11 10 9 9 9 9 9 9 7 6 5 3 1 1 1 1 1 1 2 4 5 4 6
22 21 19 19 19 21 22 20 17 16 18 19 19 19 18 16 15 14 12 11 10 9 9 9 9 8 7 5 4 3 2 2 2 2 2 2 3 4 6 6 5 6
22 20 19 22 24 23 22 19 16 17 20 20 20 19 18 17 15 14 13 12 11 9 9 8 8 7 5 5 6 6 6 3 1 2 3 4 5 6 7 7 6 6
22 21 22 26 25 23 21 19 18 19 21 21 21 20 19 17 15 14 13 13 12 10 8 7 6 6 5 5 6 8 8 5 4 5 7 8 8 7 7 7 7 6
22 24 26 27 25 23 21 19 19 21 21 21 21 20 18 17 16 15 14 13 12 10 8 6 5 5 4 3 5 7 7 4 4 6 8 10 11 11 10 10 9 7
22 25 27 26 24 22 20 20 21 22 20 19 19 18 18 17 16 16 15 14 12 10 8 7 6 6 4 1 3 7 7 3 4 6 8 10 12 13 14 14 14 13
21 25 27 26 24 22 20 21 22 21 19 17 16 16 17 17 17 16 15 14 12 11 9 8 7 8 5 2 2 6 5 2 4 5 8 11 13 14 15 15 15 14
24 27 27 26 24 22 21 21 20 18 17 15 14 15 16 18 18 17 16 15 13 12 11 9 8 8 7 3 2 4 3 3 5 6 8 11 13 14 15 14 14 13
Wind_Direction
187 190 193 193 193 190 186 187 195 201 201 203 219 234 239 247 256 264 271 275 277 275 269 266 264 267 274 275 275 275 268 263 262 265 270 273 280 290 295 299 304 305
187 191 193 192 189 187 187 191 197 203 204 207 219 233 240 248 256 264 270 272 274 269 262 261 263 267 274 274 274 272 266 262 260 264 269 270 271 277 284 290 292 292
190 193 194 191 189 187 189 193 197 203 206 210 219 233 242 249 257 264 267 268 267 262 259 261 261 261 264 269 271 262 256 259 260 264 270 271 269 271 278 282 284 286
190 193 194 192 191 190 191 193 198 203 209 215 223 236 246 253 260 264 263 261 257 252 250 245 235 239 242 251 263 254 250 258 257 259 270 278 280 278 280 282 282 286
187 191 193 193 193 194 195 197 202 208 213 221 228 240 251 256 261 262 259 255 248 241 238 229 219 224 228 240 260 259 260 267 263 265 277 285 286 284 284 285 285 288
187 191 192 193 194 196 199 202 208 213 219 227 236 249 255 257 257 254 249 243 237 229 232 235 208 196 205 225 260 262 268 273 275 284 290 290 291 295 297 297 299 304
189 190 190 193 195 199 204 209 215 220 227 237 246 254 254 251 248 242 236 233 229 221 215 207 165 165 180 227 267 270 276 283 292 301 304 305 311 316 317 317 320 327
189 190 192 196 200 206 211 217 223 228 238 247 250 248 241 236 232 228 228 228 215 190 181 175 156 139 110 359 333 310 297 299 312 320 322 326 328 328 332 336 340 349
188 190 195 199 205 212 216 222 228 234 243 247 242 231 223 221 221 220 222 212 184 168 162 159 154 129 60 2 338 317 305 310 325 333 332 339 345 345 349 352 353 6
190 193 196 201 208 215 221 226 231 238 243 241 231 219 214 217 218 214 202 181 168 162 155 158 171 126 43 3 329 302 305 326 349 341 342 360 12 10 11 10 13 30
192 195 199 205 212 219 226 231 236 241 239 233 224 215 211 215 210 193 174 163 160 157 156 174 185 114 59 356 315 284 339 20 30 2 10 35 39 35 36 32 32 42
194 198 203 209 215 222 231 237 240 239 229 220 218 214 210 205 187 169 161 158 156 155 163 179 165 114 85 74 143 135 115 69 54 37 40 52 47 44 45 40 40 43
197 203 208 212 219 227 236 239 237 230 220 213 210 206 196 177 163 160 159 156 154 158 161 158 138 119 114 128 139 134 110 85 69 48 49 56 48 45 46 44 44 42
201 207 212 217 224 233 239 236 226 213 209 206 196 182 169 159 158 160 157 154 155 154 147 138 126 121 121 127 131 116 93 95 87 55 50 56 51 43 41 45 48 44
206 212 217 224 232 238 235 223 205 193 195 195 178 162 158 158 159 158 157 156 153 147 140 133 123 114 109 107 107 100 93 98 90 63 51 49 46 38 32 39 51 50
212 217 223 230 234 231 217 199 185 184 190 181 162 156 159 161 159 156 157 154 148 142 135 127 117 108 102 98 99 100 98 95 86 73 59 44 38 33 29 34 42 48
216 221 226 229 225 214 196 180 176 184 185 168 158 158 160 159 157 155 153 148 144 138 130 124 117 109 104 100 101 102 101 97 89 78 63 45 39 37 42 43 37 47
221 222 223 222 215 200 178 169 175 183 177 164 159 160 158 156 155 154 151 147 144 139 133 127 120 112 107 105 104 101 100 97 87 69 40 28 46 58 77 79 52 54
227 224 221 215 200 180 167 169 178 179 170 163 159 158 157 156 156 155 152 148 145 141 136 129 122 118 115 112 108 101 95 76 6 325 290 257 133 112 118 118 89 70
223 220 214 197 177 166 165 170 177 174 165 161 158 157 159 159 157 156 153 150 148 144 138 131 126 125 122 114 103 77 40 331 297 270 229 177 145 136 137 135 116 91
210 206 192 173 165 166 168 171 177 173 163 160 160 159 161 161 159 158 155 152 150 146 142 136 128 121 109 90 73 51 36 34 63 119 132 129 130 137 144 146 139 119
198 188 172 164 165 169 170 173 178 174 166 164 164 163 164 164 161 160 157 155 153 148 144 139 127 113 95 77 58 36 30 47 89 106 110 109 111 117 127 136 144 148
185 173 164 164 167 171 173 175 177 175 172 171 170 168 168 167 163 161 159 158 156 152 149 143 131 123 111 80 49 28 24 53 110 111 109 107 104 105 107 109 111 116
174 167 164 165 169 174 179 178 176 177 176 174 173 172 170 168 167 164 161 161 161 156 153 151 145 146 152 122 41 25 19 64 128 121 114 111 107 107 106 104 102 100
169 167 167 168 172 179 182 177 173 175 174 172 175 175 170 168 169 166 163 162 163 162 160 160 157 156 162 183 14 13 14 90 139 128 119 116 114 114 113 110 107 104
169 169 170 172 175 179 179 175 173 174 174 175 179 181 175 171 170 168 165 164 165 167 166 167 168 164 162 184 314 358 22 128 142 129 121 120 120 122 122 118 113 107